User: anonymous   Login
Location: Unspecified
(0.0000°N, 0.0000°E)
Time: 07:46:18
(UTC+00:00)
Language:

STARLINK-4734 - Orbit

View from above orbital plane
View from above orbital plane
View from above satellite
View from above satellite

Ground track
Ground track

The orbit is defined by the following mean orbital elements,

1 53790U          26145.36778181 +.00000000 +00000-0 +11425-3 0 00002
2 53790  53.2124 289.7758 0001305  97.7015 262.4125 15.08838417    04
Epoch (UTC): 25 May 2026 08:49:36
Eccentricity: 0.0001305
inclination: 53.2124°
perigee height: 539 km
apogee height: 541 km
right ascension of ascending node: 289.7758°
argument of perigee: 97.7015°
revolutions per day: 15.08838417
mean anomaly at epoch: 262.4125°

The dashed part of the orbit path shows where the satellite is in the earth's shadow,  

DLR